[[{"header":{"parameterUnit":"m.s-1","parameterCategory":1,"la1":30.2991,"la2":30.254,"lo1":-89.0895,"lo2":-89.0444,"dy":0.0017,"dx":0.0017,"nx":28,"ny":28,"refTime":"2024-07-08T09:00:00:Z","depth":0,"parameterNumber":2,"parameterNumberName":"U-component_of_WINDS"},"data":[0,0,0,0,0,0,0,0,0,0,0,0,0,0,0,0,0,0,0,0,0,0,0,0,0,0,0,0,0,0,0,0,0,0,0,0,0,0,0,0,0,0,0,0,0,0,0,0,0,0,0,0,0,0,0,0,0,0,-2.2869,-2.287,0,-2.2898,-2.2899,-2.2899,-2.2889,-2.2889,-2.2888,-2.2887,-2.2917,-2.2919,-2.292,0,0,0,0,0,0,0,0,0,0,0,0,0,-2.2806,-2.2807,-2.2869,-2.287,-2.287,-2.2898,-2.2899,-2.2899,-2.2889,-2.2889,-2.2888,-2.2887,-2.2917,-2.2918,-2.292,0,0,0,0,0,0,0,0,0,0,0,0,0,-2.2834,-2.2808,-2.2869,-2.2869,-2.2869,-2.2898,-2.2899,-2.2899,-2.289,-2.2889,-2.2888,-2.2887,-2.2916,-2.2918,-2.292,-2.2952,0,0,-2.2927,-2.2927,0,0,0,0,0,0,0,0,-2.2833,-2.2836,-2.2868,-2.2869,-2.2869,-2.2889,-2.2887,-2.2917,-2.289,-2.2882,-2.2887,-2.2886,-2.2909,-2.2911,-2.2919,-2.2953,-2.2955,-2.2927,-2.2928,-2.2929,-2.2929,0,0,0,0,0,0,0,-2.2831,-2.2835,-2.2881,-2.2869,-2.2869,-2.2867,-2.287,-2.2893,-2.29,-2.2882,-2.2882,-2.2885,-2.2909,-2.2917,-2.2919,-2.2955,-2.2927,-2.2929,-2.293,-2.2931,-2.3016,-2.3017,0,0,0,0,0,0,-2.2828,-2.2834,-2.288,-2.2882,-2.2848,-2.2869,-2.2872,-2.2884,-2.29,-2.2901,-2.2886,-2.2885,-2.2914,-2.2917,-2.292,-2.2958,-2.2929,-2.2931,-2.2932,-2.3015,-2.3017,-2.3018,0,0,0,0,0,0,-2.2827,-2.2833,-2.2879,-2.2857,-2.2863,-2.2871,-2.2884,-2.2885,-2.2893,-2.2903,-2.2904,-2.2893,-2.2913,-2.2918,-2.2944,-2.2959,-2.2932,-2.2934,-2.3014,-2.3016,-2.3017,-2.3034,0,0,0,0,0,0,-2.2825,-2.2832,-2.2844,-2.2858,-2.2864,-2.2902,-2.2885,-2.2886,-2.2897,-2.2895,-2.291,-2.2911,-2.2913,-2.2941,-2.2946,-2.2961,-2.2935,-2.3013,-2.3015,-2.3017,-2.3032,-2.3036,-2.3039,0,0,0,0,0,-2.2823,-2.2848,-2.2845,-2.2851,-2.288,-2.2903,-2.2907,-2.2908,-2.2898,-2.291,-2.2916,-2.2911,-2.2957,-2.2944,-2.2949,-2.2966,-2.3012,-2.3014,-2.3017,-2.303,-2.3035,-2.3039,0,0,0,0,0,0,-2.2836,-2.285,-2.2847,-2.2877,-2.2889,-2.2901,-2.2916,-2.2913,-2.2928,-2.2926,-2.2927,-2.2931,-2.2958,-2.2964,-2.295,-2.2997,-2.2983,-2.2986,-2.2991,-2.2996,-2.2999,-2.2997,-2.2937,0,0,0,0,0,-2.2843,-2.286,-2.2871,-2.2897,-2.2903,-2.2909,-2.2919,-2.2919,-2.2931,-2.2936,-2.2945,-2.2957,-2.2974,-2.2985,-2.3002,-2.3033,-2.3036,-2.3047,-2.3051,-2.3053,-2.3056,-2.3073,-2.3078,-2.3025,-2.3025,-2.3025,0,0,-2.2856,-2.2866,-2.2877,-2.2899,-2.2909,-2.2927,-2.2913,-2.2933,-2.2946,-2.2939,-2.2965,-2.2971,-2.2985,-2.3014,-2.3027,-2.302,-2.3071,-2.3056,-2.3059,-2.306,-2.3076,-2.3081,-2.3085,-2.3027,-2.3027,-2.3027,0,0,-2.2889,-2.2899,-2.2921,-2.293,-2.2944,-2.2948,-2.2953,-2.2966,-2.297,-2.2996,-2.2991,-2.3007,-2.3037,-2.3047,-2.3056,-2.3093,-2.3088,-2.3098,-2.3116,-2.3132,-2.3137,-2.314,-2.3153,-2.3157,-2.3101,-2.3101,-2.3101,0,-2.2904,-2.2931,-2.2932,-2.2952,-2.2963,-2.2957,-2.2979,-2.2989,-2.3007,-2.3015,-2.3007,-2.3044,-2.3053,-2.3084,-2.3093,-2.31,-2.3106,-2.3096,-2.3136,-2.314,-2.3143,-2.3155,-2.316,-2.3102,-2.3102,-2.3102,-2.3102,0,-2.2948,-2.2967,-2.2983,-2.3001,-2.3013,-2.3034,-2.3039,-2.3051,-2.305,-2.3054,-2.308,-2.3091,-2.3109,-2.3117,-2.3116,-2.3147,-2.3143,-2.3135,-2.3121,-2.3149,-2.316,-2.3165,-2.3104,-2.3104,-2.3103,-2.3103,0,0,-2.2991,-2.3009,-2.3015,-2.3023,-2.3038,-2.3053,-2.3073,-2.3091,-2.3101,-2.3114,-2.3132,-2.3157,-2.315,-2.316,-2.3161,-2.3175,-2.3203,-2.3166,-2.3167,-2.3172,-2.3238,-2.3243,-2.3248,-2.32,-2.3201,-2.3202,-2.3236,0,-2.3025,-2.3061,-2.3063,-2.3096,-2.3113,-2.3108,-2.3126,-2.3137,-2.3142,-2.3158,-2.3163,-2.3181,-2.3171,-2.3177,-2.3191,-2.3197,-2.3216,-2.3195,-2.3216,-2.3217,-2.3212,-2.3254,-2.3259,-2.3291,-2.3241,-2.3242,-2.3242,0,-2.307,-2.3084,-2.3119,-2.3131,-2.3138,-2.3155,-2.3171,-2.3186,-2.3198,-2.3201,-2.3212,-2.321,-2.3231,-2.3217,-2.3246,-2.3231,-2.324,-2.3244,-2.3246,-2.3247,-2.3231,-2.3256,-2.3301,-2.3306,-2.3249,-2.3249,-2.3248,0,-2.3097,-2.3125,-2.3149,-2.3156,-2.3171,-2.3182,-2.3189,-2.3201,-2.3211,-2.3226,-2.3232,-2.3249,-2.3258,-2.3271,-2.3274,-2.3263,-2.3302,-2.3288,-2.3305,-2.3305,-2.3313,-2.3312,-2.336,-2.332,-2.3319,-2.3319,-2.3319,0,-2.3135,-2.3156,-2.3161,-2.3176,-2.3199,-2.3201,-2.3224,-2.323,-2.3241,-2.3257,-2.3254,-2.3269,-2.3272,-2.3287,-2.329,-2.3313,-2.3317,-2.332,-2.332,-2.332,-2.3319,-2.3325,-2.3323,-2.3321,-2.332,-2.332,-2.332,0,-2.3168,-2.3173,-2.3199,-2.3211,-2.3214,-2.3231,-2.3241,-2.3255,-2.326,-2.328,-2.3285,-2.3292,-2.331,-2.3314,-2.3336,-2.3337,-2.3365,-2.3363,-2.336,-2.336,-2.3376,-2.3374,-2.3428,-2.3435,-2.3391,-2.3392,-2.3392,0,-2.3192,-2.3208,-2.3222,-2.3232,-2.3239,-2.3256,-2.3266,-2.3269,-2.328,-2.3295,-2.3307,-2.3325,-2.3339,-2.3368,-2.3375,-2.3392,-2.339,-2.3408,-2.3393,-2.3392,-2.339,-2.3389,-2.339,-2.3411,-2.3411,-2.3412,-2.3412,0,-2.3234,-2.3235,-2.325,-2.3266,-2.3278,-2.3291,-2.3303,-2.3311,-2.3315,-2.3328,-2.3346,-2.3357,-2.3379,-2.3397,-2.3413,-2.342,-2.3417,-2.3417,-2.3422,-2.3421,-2.3419,-2.342,-2.3368,-2.3416,-2.3415,-2.3415,-2.3415,-2.3415,-2.3263,-2.3277,-2.3288,-2.3305,-2.3314,-2.3325,-2.3339,-2.3345,-2.336,-2.3378,-2.3378,-2.3398,-2.341,-2.3432,-2.344,-2.3455,-2.345,-2.3457,-2.3458,-2.346,-2.3461,-2.3417,-2.3458,-2.3458,-2.3458,-2.3458,-2.3458,0,-2.3304,-2.3311,-2.3326,-2.3343,-2.3356,-2.3351,-2.3364,-2.3376,-2.3393,-2.3404,-2.3418,-2.3439,-2.3456,-2.3464,-2.3481,-2.3492,-2.3491,-2.3496,-2.3495,-2.3497,-2.3465,-2.3459,-2.3497,-2.3497,-2.3497,-2.3497,-2.3497,-2.3497,-2.3327,-2.335,-2.3352,-2.3379,-2.3386,-2.3406,-2.3413,-2.3424,-2.3432,-2.3456,-2.347,-2.3475,-2.3485,-2.3502,-2.3517,-2.3519,-2.3525,-2.3531,-2.3532,-2.3503,-2.3499,-2.3495,-2.349,-2.3533,-2.3533,-2.3562,-2.3563,-2.3563]},{"header":{"parameterUnit":"m.s-1","parameterCategory":1,"la1":30.2991,"la2":30.254,"lo1":-89.0895,"lo2":-89.0444,"dy":0.0017,"dx":0.0017,"nx":28,"ny":28,"refTime":"2024-07-08T09:00:00:Z","depth":0,"parameterNumber":3,"parameterNumberName":"V-component_of_WINDS"},"data":[0,0,0,0,0,0,0,0,0,0,0,0,0,0,0,0,0,0,0,0,0,0,0,0,0,0,0,0,0,0,0,0,0,0,0,0,0,0,0,0,0,0,0,0,0,0,0,0,0,0,0,0,0,0,0,0,0,0,6.0195,6.0195,0,6.0158,6.0158,6.0158,6.0035,6.0033,6.003,6.0027,5.9991,5.9993,5.9994,0,0,0,0,0,0,0,0,0,0,0,0,0,6.0163,6.0165,6.0196,6.0195,6.0195,6.0159,6.0158,6.0158,6.0036,6.0032,6.0029,6.0026,5.9991,5.9993,5.9995,0,0,0,0,0,0,0,0,0,0,0,0,0,6.0157,6.0165,6.0196,6.0129,6.0123,6.0159,6.0158,6.0157,6.0036,6.0032,6.0028,6.0024,5.999,5.9992,5.9995,6.0092,0,0,6.0002,6.0003,0,0,0,0,0,0,0,0,6.0158,6.0158,6.014,6.0134,6.0127,6.0097,6.0133,6.0136,6.0038,6.0069,6.0027,6.0022,6.003,6.0029,6.0031,6.009,6.0089,6.0002,6.0004,6.0005,6.0006,0,0,0,0,0,0,0,6.0158,6.0159,6.0181,6.014,6.0132,6.0103,6.0097,6.0133,6.0073,6.0066,6.0057,6.0055,6.0026,6.0029,6.0029,6.0088,6.0002,6.0004,6.0006,6.0007,6.0225,6.0229,0,0,0,0,0,0,6.0168,6.0161,6.0182,6.018,6.0132,6.0106,6.01,6.0111,6.0073,6.0063,6.0058,6.0049,6.0027,6.0027,6.0028,6.0137,6.0005,6.0007,6.0009,6.0221,6.0226,6.023,0,0,0,0,0,0,6.0168,6.0171,6.0183,6.0168,6.0167,6.0111,6.0124,6.0112,6.0115,6.0066,6.0055,6.0072,6.0024,6.0024,6.0077,6.0134,6.0008,6.001,6.0215,6.0222,6.0228,6.0357,0,0,0,0,0,0,6.0167,6.0172,6.0207,6.0169,6.0168,6.0232,6.0128,6.0115,6.012,6.0107,6.0076,6.0067,6.002,6.0074,6.0079,6.0135,6.0012,6.021,6.0218,6.0226,6.0348,6.0368,6.0385,0,0,0,0,0,6.0166,6.0245,6.0209,6.0213,6.0211,6.0236,6.0235,6.0179,6.0125,6.016,6.0129,6.0068,6.0128,6.008,6.0085,6.0143,6.0206,6.0216,6.0225,6.0339,6.0364,6.0384,0,0,0,0,0,0,6.0291,6.0239,6.0198,6.0267,6.0257,6.0215,6.0257,6.0207,6.0212,6.02,6.0131,6.0125,6.0187,6.0171,6.0118,6.0234,6.0157,6.0168,6.0242,6.0265,6.0283,6.0283,6.0014,0,0,0,0,0,6.0327,6.035,6.0304,6.037,6.0366,6.0314,6.0322,6.028,6.0267,6.0262,6.0234,6.0224,6.024,6.0252,6.0265,6.0347,6.0337,6.0389,6.0407,6.0423,6.0432,6.0473,6.0495,6.0263,6.0263,6.0262,0,0,6.04,6.0375,6.0394,6.0394,6.0381,6.0407,6.031,6.0343,6.0361,6.0267,6.0313,6.0294,6.0278,6.0345,6.0374,6.0333,6.0495,6.0435,6.0448,6.0448,6.0485,6.0507,6.0527,6.0269,6.0268,6.0267,0,0,6.0546,6.053,6.0582,6.0571,6.0553,6.0517,6.0531,6.0497,6.048,6.0526,6.0455,6.0478,6.0508,6.0499,6.0499,6.0645,6.0589,6.0652,6.0746,6.0787,6.0805,6.0821,6.0871,6.089,6.0662,6.0663,6.0663,0,6.0639,6.0674,6.0615,6.0651,6.0653,6.057,6.0622,6.0615,6.0603,6.0606,6.0562,6.0597,6.0581,6.0644,6.068,6.0684,6.0696,6.0652,6.0808,6.0823,6.0837,6.0883,6.0902,6.067,6.0669,6.0668,6.0668,0,6.0789,6.0816,6.086,6.0849,6.0856,6.0901,6.0849,6.0864,6.0823,6.0793,6.0842,6.082,6.0826,6.0839,6.0799,6.0897,6.0872,6.082,6.0739,6.0867,6.0909,6.0927,6.0681,6.0678,6.0676,6.0674,0,0,6.1007,6.0965,6.0982,6.0975,6.0951,6.097,6.1012,6.1017,6.1031,6.1027,6.1059,6.1088,6.1038,6.1038,6.0997,6.1034,6.1149,6.0976,6.0974,6.1006,6.1253,6.129,6.1312,6.1114,6.1117,6.112,6.1253,0,6.1143,6.1209,6.1158,6.1234,6.1257,6.1181,6.1217,6.1206,6.1181,6.1197,6.117,6.119,6.1125,6.1124,6.1157,6.1128,6.1197,6.1118,6.1141,6.1143,6.1143,6.1334,6.1374,6.1501,6.127,6.1273,6.1275,0,6.1309,6.1311,6.1389,6.1359,6.1367,6.14,6.1401,6.1419,6.1406,6.1385,6.1386,6.1336,6.1376,6.1301,6.1354,6.1302,6.131,6.1297,6.1301,6.1297,6.1213,6.1333,6.154,6.1558,6.1301,6.1299,6.1297,0,6.1456,6.1479,6.1528,6.1526,6.1494,6.1518,6.1507,6.149,6.1497,6.1499,6.1503,6.1511,6.1514,6.1522,6.1475,6.1426,6.1534,6.1456,6.1516,6.1517,6.1538,6.1537,6.1746,6.1551,6.1551,6.155,6.155,0,6.161,6.166,6.1594,6.1623,6.1678,6.1621,6.1676,6.1656,6.1642,6.1667,6.1604,6.1629,6.1568,6.1588,6.1553,6.1601,6.1604,6.1588,6.1577,6.1591,6.1592,6.1591,6.158,6.1555,6.1554,6.1553,6.1552,0,6.1781,6.1739,6.1787,6.1754,6.1747,6.1788,6.1759,6.1786,6.1758,6.179,6.1795,6.175,6.177,6.1726,6.174,6.1716,6.1784,6.1762,6.1788,6.1779,6.1841,6.1835,6.2054,6.2078,6.1871,6.1874,6.1875,0,6.188,6.1916,6.1887,6.1899,6.189,6.1911,6.1917,6.1865,6.1874,6.1864,6.1892,6.1907,6.1914,6.195,6.1919,6.1929,6.1904,6.1981,6.1905,6.1918,6.1901,6.1898,6.19,6.1994,6.1997,6.1999,6.2001,0,6.2058,6.2036,6.2048,6.2054,6.2063,6.2065,6.2063,6.2077,6.202,6.2035,6.2054,6.2061,6.2075,6.209,6.2094,6.2082,6.2032,6.2026,6.2039,6.2052,6.2064,6.2055,6.1826,6.2019,6.2018,6.2016,6.2015,6.2014,6.2193,6.2222,6.2206,6.2221,6.2214,6.2214,6.2237,6.2212,6.2227,6.2233,6.2203,6.2229,6.2217,6.2216,6.2211,6.223,6.2196,6.2217,6.2221,6.2226,6.2235,6.2065,6.2232,6.2231,6.223,6.223,6.223,0,6.2365,6.2352,6.2367,6.2365,6.2378,6.2332,6.2328,6.2341,6.2365,6.2358,6.2367,6.239,6.2405,6.2377,6.2387,6.2408,6.2386,6.2413,6.2408,6.2406,6.2267,6.2252,6.2431,6.2431,6.2431,6.2431,6.2431,6.2431,6.2456,6.2501,6.2478,6.252,6.2506,6.253,6.2532,6.2531,6.2525,6.2553,6.2564,6.2547,6.2531,6.254,6.2552,6.2544,6.2549,6.2583,6.2567,6.2436,6.2416,6.2397,6.2383,6.2586,6.2586,6.2703,6.2705,6.2705]}]]